Terminal Aerodrome Forecast
Issued by NWS Milwaukee/Sullivan, WI

Home | Current Version | Previous Version | Text Only | Print | Product List | Glossary On
Versions: 1 2 3 4 5 6 7 8 9 10 11 12 13 14 15 16 17 18 19 20 21 22 23 24 25 26 27 28 29 30 31 32 33 34 35 36 37 38 39 40 41 42 43 44 45 46 47 48 49 50
244
FTUS43 KMKX 132320
TAFMKE
TAF
KMKE 132320Z 1400/1506 30005KT P6SM SCT250
     FM141300 19004KT P6SM BKN090
     FM141700 16013KT 3SM -SN OVC025
     FM142000 15014KT 1SM -SHSN OVC010
     FM150000 15013KT 2SM -SN OVC020=

USA.gov is the U.S. government's official web portal to all federal, state and local government web resources and services.